Location: TAAA CAC
(31.8680°N, 109.5150°W)
Time: 22:04:32
(UTC-07:00)

BlueWalker 3 - Pass Details

Date: 17 March 2026
Orbit: 449 x 457 km, 53.2° (Epoch: 20 April)

Event Time Altitude Azimuth Distance (km) Brightness Sun altitude
Exits shadow 04:54:22 11° 342° (NNW) 1,508 4.3 -20.1°
Maximum altitude 04:57:14 27° 41° (NE) 896 3.7 -19.5°
Drops below altitude 10° 05:00:20 10° 101° (E) 1,584 5.5 -18.8°
Sets 05:02:40 0° 114° (ESE) 2,452 6.4 -18.3°
